Time,TemperatureF,DewpointF,PressureIn,WindDirection,WindDirectionDegrees,WindSpeedMPH,WindSpeedGustMPH,Humidity,HourlyPrecipIn,Conditions,Clouds,dailyrainin,SoftwareType,DateUTC
2013-06-15 00:07:00,51.9,46.0,29.84,WSW,240,0.0,0.0,80,0.00,,,0.00,weatherlink.com 1.10,2013-06-15 07:07:00,
2013-06-15 00:22:00,51.5,46.0,29.84,WSW,240,0.0,0.0,81,0.00,,,0.00,weatherlink.com 1.10,2013-06-15 07:22:00,
2013-06-15 00:37:00,50.6,44.0,29.84,WSW,240,0.0,0.0,78,0.00,,,0.00,weatherlink.com 1.10,2013-06-15 07:37:00,
2013-06-15 00:52:00,50.2,45.0,29.84,WSW,240,0.0,0.0,82,0.00,,,0.00,weatherlink.com 1.10,2013-06-15 07:52:00,
2013-06-15 01:07:00,49.7,43.0,29.83,WSW,240,0.0,0.0,79,0.00,,,0.00,weatherlink.com 1.10,2013-06-15 08:07:00,
2013-06-15 01:22:00,50.0,45.0,29.83,WSW,240,0.0,0.0,83,0.00,,,0.00,weatherlink.com 1.10,2013-06-15 08:22:00,
2013-06-15 01:37:00,49.9,44.0,29.83,WSW,240,0.0,0.0,80,0.00,,,0.00,weatherlink.com 1.10,2013-06-15 08:37:00,
2013-06-15 01:52:00,49.2,44.0,29.83,WSW,240,0.0,0.0,81,0.00,,,0.00,weatherlink.com 1.10,2013-06-15 08:52:00,
2013-06-15 02:07:00,49.0,44.0,29.83,WSW,240,0.0,0.0,82,0.00,,,0.00,weatherlink.com 1.10,2013-06-15 09:07:00,
2013-06-15 02:22:00,48.8,45.0,29.83,WSW,240,0.0,0.0,85,0.00,,,0.00,weatherlink.com 1.10,2013-06-15 09:22:00,
2013-06-15 02:37:00,49.4,46.0,29.83,WSW,240,0.0,0.0,89,0.00,,,0.00,weatherlink.com 1.10,2013-06-15 09:37:00,
2013-06-15 02:52:00,49.8,47.0,29.83,ESE,108,0.0,0.0,90,0.00,,,0.00,weatherlink.com 1.10,2013-06-15 09:52:00,
2013-06-15 03:07:00,49.0,46.0,29.84,ESE,108,0.0,0.0,88,0.00,,,0.00,weatherlink.com 1.10,2013-06-15 10:07:00,
2013-06-15 03:22:00,48.2,45.0,29.84,ESE,108,0.0,0.0,87,0.00,,,0.00,weatherlink.com 1.10,2013-06-15 10:22:00,
2013-06-15 03:37:00,48.2,45.0,29.84,ESE,108,0.0,0.0,89,0.00,,,0.00,weatherlink.com 1.10,2013-06-15 10:37:00,
2013-06-15 03:52:00,48.5,46.0,29.84,ESE,108,0.0,0.0,91,0.00,,,0.00,weatherlink.com 1.10,2013-06-15 10:52:00,
2013-06-15 04:07:00,47.8,45.0,29.84,ESE,108,0.0,0.0,90,0.00,,,0.00,weatherlink.com 1.10,2013-06-15 11:07:00,
2013-06-15 04:22:00,47.3,45.0,29.84,ESE,108,0.0,0.0,90,0.00,,,0.00,weatherlink.com 1.10,2013-06-15 11:22:00,
2013-06-15 04:37:00,48.2,46.0,29.84,ESE,108,0.0,0.0,92,0.00,,,0.00,weatherlink.com 1.10,2013-06-15 11:37:00,
2013-06-15 04:52:00,47.6,45.0,29.85,ESE,108,0.0,0.0,91,0.00,,,0.00,weatherlink.com 1.10,2013-06-15 11:52:00,
2013-06-15 05:07:00,47.2,45.0,29.85,ESE,108,0.0,0.0,92,0.00,,,0.00,weatherlink.com 1.10,2013-06-15 12:07:00,
2013-06-15 05:22:00,47.1,45.0,29.85,ESE,108,0.0,0.0,92,0.00,,,0.00,weatherlink.com 1.10,2013-06-15 12:22:00,
2013-06-15 05:37:00,46.5,44.0,29.85,ESE,108,0.0,0.0,92,0.00,,,0.00,weatherlink.com 1.10,2013-06-15 12:37:00,
2013-06-15 05:52:00,46.5,44.0,29.86,ESE,108,0.0,0.0,92,0.00,,,0.00,weatherlink.com 1.10,2013-06-15 12:52:00,
2013-06-15 06:07:00,46.6,44.0,29.86,ESE,108,0.0,0.0,92,0.00,,,0.00,weatherlink.com 1.10,2013-06-15 13:07:00,
2013-06-15 06:22:00,47.1,45.0,29.86,ESE,108,0.0,0.0,92,0.00,,,0.00,weatherlink.com 1.10,2013-06-15 13:22:00,
2013-06-15 06:37:00,48.1,46.0,29.87,ESE,108,0.0,0.0,91,0.00,,,0.00,weatherlink.com 1.10,2013-06-15 13:37:00,
2013-06-15 06:53:00,48.9,46.0,29.87,ESE,108,0.0,1.0,89,0.00,,,0.00,weatherlink.com 1.10,2013-06-15 13:53:00,
2013-06-15 07:08:00,49.4,46.0,29.88,SSE,163,0.0,0.0,88,0.00,,,0.00,weatherlink.com 1.10,2013-06-15 14:08:00,
2013-06-15 07:23:00,50.8,49.0,29.88,SE,141,0.0,1.0,92,0.00,,,0.00,weatherlink.com 1.10,2013-06-15 14:23:00,
2013-06-15 07:38:00,52.5,50.0,29.88,SE,127,0.0,1.0,90,0.00,,,0.00,weatherlink.com 1.10,2013-06-15 14:38:00,
2013-06-15 07:53:00,53.8,50.0,29.88,ESE,116,1.0,1.0,88,0.00,,,0.00,weatherlink.com 1.10,2013-06-15 14:53:00,
2013-06-15 08:08:00,55.0,51.0,29.89,SE,125,0.0,1.0,85,0.00,,,0.00,weatherlink.com 1.10,2013-06-15 15:08:00,
2013-06-15 08:23:00,56.1,51.0,29.89,SSE,160,0.0,3.0,83,0.00,,,0.00,weatherlink.com 1.10,2013-06-15 15:23:00,
2013-06-15 08:38:00,57.2,51.0,29.90,SE,128,0.0,1.0,79,0.00,,,0.00,weatherlink.com 1.10,2013-06-15 15:38:00,
2013-06-15 08:53:00,57.8,48.0,29.90,ESE,115,0.0,3.0,69,0.00,,,0.00,weatherlink.com 1.10,2013-06-15 15:53:00,
2013-06-15 09:08:00,58.0,48.0,29.90,ESE,102,0.0,2.0,69,0.00,,,0.00,weatherlink.com 1.10,2013-06-15 16:08:00,
2013-06-15 09:23:00,59.5,48.0,29.90,SE,126,1.0,3.0,66,0.00,,,0.00,weatherlink.com 1.10,2013-06-15 16:23:00,
2013-06-15 09:38:00,60.4,48.0,29.91,SE,129,0.0,3.0,64,0.00,,,0.00,weatherlink.com 1.10,2013-06-15 16:38:00,
2013-06-15 09:53:00,62.2,49.0,29.91,SE,132,0.0,3.0,63,0.00,,,0.00,weatherlink.com 1.10,2013-06-15 16:53:00,
2013-06-15 10:08:00,64.2,50.0,29.91,SE,136,1.0,2.0,60,0.00,,,0.00,weatherlink.com 1.10,2013-06-15 17:08:00,
2013-06-15 10:23:00,65.8,50.0,29.91,South,169,0.0,2.0,57,0.00,,,0.00,weatherlink.com 1.10,2013-06-15 17:23:00,
2013-06-15 10:38:00,67.1,51.0,29.91,SE,146,1.0,3.0,56,0.00,,,0.00,weatherlink.com 1.10,2013-06-15 17:38:00,
2013-06-15 10:53:00,69.5,52.0,29.92,SE,131,0.0,3.0,54,0.00,,,0.00,weatherlink.com 1.10,2013-06-15 17:53:00,
2013-06-15 11:08:00,70.6,51.0,29.92,WSW,239,0.0,3.0,50,0.00,,,0.00,weatherlink.com 1.10,2013-06-15 18:08:00,
2013-06-15 11:23:00,72.2,51.0,29.92,SE,127,1.0,3.0,48,0.00,,,0.00,weatherlink.com 1.10,2013-06-15 18:23:00,
2013-06-15 11:39:00,72.8,51.0,29.92,ESE,117,1.0,3.0,47,0.00,,,0.00,weatherlink.com 1.10,2013-06-15 18:39:00,
2013-06-15 11:54:00,72.1,52.0,29.92,ESE,117,2.0,3.0,50,0.00,,,0.00,weatherlink.com 1.10,2013-06-15 18:54:00,
2013-06-15 12:09:00,73.2,52.0,29.92,SE,130,0.0,3.0,47,0.00,,,0.00,weatherlink.com 1.10,2013-06-15 19:09:00,
2013-06-15 12:24:00,74.5,52.0,29.92,SW,216,0.0,3.0,45,0.00,,,0.00,weatherlink.com 1.10,2013-06-15 19:24:00,
2013-06-15 12:39:00,77.0,52.0,29.93,SW,219,0.0,4.0,42,0.00,,,0.00,weatherlink.com 1.10,2013-06-15 19:39:00,
2013-06-15 12:54:00,75.1,52.0,29.93,North,353,1.0,4.0,45,0.00,,,0.00,weatherlink.com 1.10,2013-06-15 19:54:00,
2013-06-15 13:09:00,77.0,52.0,29.93,SSW,212,0.0,4.0,42,0.00,,,0.00,weatherlink.com 1.10,2013-06-15 20:09:00,
2013-06-15 13:24:00,75.3,51.0,29.93,East,101,2.0,5.0,43,0.00,,,0.00,weatherlink.com 1.10,2013-06-15 20:24:00,
2013-06-15 13:39:00,75.1,51.0,29.93,SE,127,3.0,5.0,43,0.00,,,0.00,weatherlink.com 1.10,2013-06-15 20:39:00,
2013-06-15 13:54:00,75.1,52.0,29.93,ENE,58,2.0,4.0,44,0.00,,,0.00,weatherlink.com 1.10,2013-06-15 20:54:00,
2013-06-15 14:09:00,75.5,52.0,29.93,SSE,159,1.0,4.0,44,0.00,,,0.00,weatherlink.com 1.10,2013-06-15 21:09:00,
2013-06-15 14:24:00,73.3,52.0,29.92,South,181,1.0,6.0,47,0.00,,,0.00,weatherlink.com 1.10,2013-06-15 21:24:00,
2013-06-15 14:39:00,70.8,52.0,29.92,ESE,113,2.0,7.0,51,0.00,,,0.00,weatherlink.com 1.10,2013-06-15 21:39:00,
2013-06-15 14:54:00,70.8,51.0,29.92,SE,143,4.0,5.0,50,0.00,,,0.00,weatherlink.com 1.10,2013-06-15 21:54:00,
2013-06-15 15:09:00,72.0,51.0,29.93,South,186,3.0,4.0,47,0.00,,,0.00,weatherlink.com 1.10,2013-06-15 22:09:00,
2013-06-15 15:24:00,72.5,51.0,29.93,ESE,115,1.0,5.0,47,0.00,,,0.00,weatherlink.com 1.10,2013-06-15 22:24:00,
2013-06-15 15:39:00,71.6,51.0,29.93,SE,145,1.0,5.0,48,0.00,,,0.00,weatherlink.com 1.10,2013-06-15 22:39:00,
2013-06-15 15:54:00,71.0,50.0,29.93,ESE,117,2.0,5.0,48,0.00,,,0.00,weatherlink.com 1.10,2013-06-15 22:54:00,
2013-06-15 16:09:00,71.3,50.0,29.93,SE,129,0.0,5.0,47,0.00,,,0.00,weatherlink.com 1.10,2013-06-15 23:09:00,
2013-06-15 16:24:00,70.4,49.0,29.93,SSE,149,2.0,5.0,47,0.00,,,0.00,weatherlink.com 1.10,2013-06-15 23:24:00,
2013-06-15 16:39:00,71.0,49.0,29.93,SE,132,3.0,4.0,45,0.00,,,0.00,weatherlink.com 1.10,2013-06-15 23:39:00,
2013-06-15 16:54:00,71.4,48.0,29.93,SE,130,1.0,4.0,44,0.00,,,0.00,weatherlink.com 1.10,2013-06-15 23:54:00,
2013-06-15 17:09:00,72.2,50.0,29.93,SSE,164,0.0,2.0,45,0.00,,,0.00,weatherlink.com 1.10,2013-06-16 00:09:00,
2013-06-15 17:24:00,72.3,50.0,29.94,ESE,123,0.0,2.0,45,0.00,,,0.00,weatherlink.com 1.10,2013-06-16 00:24:00,
2013-06-15 17:39:00,70.6,48.0,29.94,SE,128,1.0,2.0,45,0.00,,,0.00,weatherlink.com 1.10,2013-06-16 00:39:00,
2013-06-15 17:54:00,70.0,48.0,29.94,ESE,119,1.0,3.0,46,0.00,,,0.00,weatherlink.com 1.10,2013-06-16 00:54:00,
2013-06-15 18:09:00,68.9,48.0,29.94,SSE,153,1.0,2.0,48,0.00,,,0.00,weatherlink.com 1.10,2013-06-16 01:09:00,
2013-06-15 18:24:00,67.9,48.0,29.94,SE,135,0.0,2.0,50,0.00,,,0.00,weatherlink.com 1.10,2013-06-16 01:24:00,
2013-06-15 18:39:00,67.5,47.0,29.95,SE,124,1.0,3.0,48,0.00,,,0.00,weatherlink.com 1.10,2013-06-16 01:39:00,
2013-06-15 18:54:00,66.6,47.0,29.95,ESE,110,0.0,1.0,49,0.00,,,0.00,weatherlink.com 1.10,2013-06-16 01:54:00,
2013-06-15 19:09:00,65.7,47.0,29.96,ESE,119,0.0,2.0,51,0.00,,,0.00,weatherlink.com 1.10,2013-06-16 02:09:00,
2013-06-15 19:24:00,65.0,47.0,29.96,SE,134,0.0,1.0,52,0.00,,,0.00,weatherlink.com 1.10,2013-06-16 02:24:00,
2013-06-15 19:40:00,64.1,46.0,29.97,SE,143,0.0,2.0,53,0.00,,,0.00,weatherlink.com 1.10,2013-06-16 02:40:00,
2013-06-15 19:54:00,63.3,46.0,29.97,SE,144,0.0,1.0,54,0.00,,,0.00,weatherlink.com 1.10,2013-06-16 02:54:00,
2013-06-15 20:09:00,62.4,46.0,29.97,WSW,244,0.0,1.0,56,0.00,,,0.00,weatherlink.com 1.10,2013-06-16 03:09:00,
2013-06-15 20:24:00,61.1,47.0,29.97,SE,133,0.0,0.0,60,0.00,,,0.00,weatherlink.com 1.10,2013-06-16 03:24:00,
2013-06-15 20:39:00,59.8,47.0,29.97,South,188,0.0,1.0,64,0.00,,,0.00,weatherlink.com 1.10,2013-06-16 03:39:00,
2013-06-15 20:54:00,58.6,48.0,29.98,SE,143,0.0,1.0,68,0.00,,,0.00,weatherlink.com 1.10,2013-06-16 03:54:00,
2013-06-15 21:09:00,57.6,49.0,29.98,SE,126,0.0,2.0,72,0.00,,,0.00,weatherlink.com 1.10,2013-06-16 04:09:00,
2013-06-15 21:24:00,56.9,49.0,29.98,SE,124,0.0,2.0,75,0.00,,,0.00,weatherlink.com 1.10,2013-06-16 04:24:00,
2013-06-15 21:39:00,56.4,49.0,29.99,SE,139,1.0,2.0,77,0.00,,,0.00,weatherlink.com 1.10,2013-06-16 04:39:00,
2013-06-15 21:54:00,56.0,50.0,29.99,South,172,0.0,2.0,80,0.00,,,0.00,weatherlink.com 1.10,2013-06-16 04:54:00,
2013-06-15 22:09:00,55.5,50.0,30.00,SE,139,0.0,2.0,82,0.00,,,0.00,weatherlink.com 1.10,2013-06-16 05:09:00,
2013-06-15 22:24:00,54.9,50.0,30.01,SE,133,0.0,1.0,83,0.00,,,0.00,weatherlink.com 1.10,2013-06-16 05:24:00,
2013-06-15 22:39:00,54.3,50.0,30.01,SE,133,0.0,0.0,84,0.00,,,0.00,weatherlink.com 1.10,2013-06-16 05:39:00,
2013-06-15 22:54:00,53.7,49.0,30.01,SE,133,0.0,0.0,85,0.00,,,0.00,weatherlink.com 1.10,2013-06-16 05:54:00,
2013-06-15 23:09:00,52.5,48.0,30.01,SE,133,0.0,0.0,85,0.00,,,0.00,weatherlink.com 1.10,2013-06-16 06:09:00,
2013-06-15 23:24:00,51.5,47.0,30.01,SE,133,0.0,0.0,85,0.00,,,0.00,weatherlink.com 1.10,2013-06-16 06:24:00,
2013-06-15 23:39:00,50.6,46.0,30.01,SE,133,0.0,0.0,85,0.00,,,0.00,weatherlink.com 1.10,2013-06-16 06:39:00,
2013-06-15 23:54:00,50.3,47.0,30.01,SE,133,0.0,0.0,87,0.00,,,0.00,weatherlink.com 1.10,2013-06-16 06:54:00,